Time,TemperatureF,DewpointF,PressureIn,WindDirection,WindDirectionDegrees,WindSpeedMPH,WindSpeedGustMPH,Humidity,HourlyPrecipIn,Conditions,Clouds,dailyrainin,SoftwareType,DateUTC
2014-10-01 00:00:00,54.0,49.3,29.92,North,0,1.0,3.0,84,0.00,,---,0.00,VWS V15.00,2014-10-01 04:00:00,
2014-10-01 00:01:00,54.0,49.3,29.92,North,0,1.0,2.0,84,0.00,,---,0.00,VWS V15.00,2014-10-01 04:01:00,
2014-10-01 00:02:00,54.0,49.3,29.92,North,0,0.0,1.0,84,0.00,,---,0.00,VWS V15.00,2014-10-01 04:02:00,
2014-10-01 00:03:00,54.0,49.3,29.92,NNW,338,2.0,4.0,84,0.00,,---,0.00,VWS V15.00,2014-10-01 04:03:00,
2014-10-01 00:04:00,54.0,49.3,29.92,NNW,338,1.0,3.0,84,0.00,,---,0.00,VWS V15.00,2014-10-01 04:04:00,
2014-10-01 00:05:00,53.9,49.2,29.92,NNW,338,1.0,2.0,84,0.00,,---,0.00,VWS V15.00,2014-10-01 04:05:00,
2014-10-01 00:06:00,53.9,49.2,29.92,NNW,338,1.0,2.0,84,0.00,,---,0.00,VWS V15.00,2014-10-01 04:06:00,
2014-10-01 00:07:00,53.9,49.2,29.92,NNW,338,1.0,3.0,84,0.00,,---,0.00,VWS V15.00,2014-10-01 04:07:00,
2014-10-01 00:08:00,53.9,49.2,29.93,NNW,338,1.0,4.0,84,0.00,,---,0.00,VWS V15.00,2014-10-01 04:08:00,
2014-10-01 00:09:00,53.9,49.2,29.92,North,0,2.0,4.0,84,0.00,,---,0.00,VWS V15.00,2014-10-01 04:09:00,
2014-10-01 00:10:00,53.8,49.1,29.92,North,0,1.0,2.0,84,0.00,,---,0.00,VWS V15.00,2014-10-01 04:10:00,
2014-10-01 00:11:00,53.8,49.1,29.92,NNE,22,1.0,3.0,84,0.00,,---,0.00,VWS V15.00,2014-10-01 04:11:00,
2014-10-01 00:12:00,53.8,49.1,29.92,NNE,22,1.0,3.0,84,0.00,,---,0.00,VWS V15.00,2014-10-01 04:12:00,
2014-10-01 00:13:00,53.8,49.1,29.92,NNW,338,2.0,5.0,84,0.00,,---,0.00,VWS V15.00,2014-10-01 04:13:00,
2014-10-01 00:14:00,53.8,49.1,29.92,NNW,338,2.0,5.0,84,0.00,,---,0.00,VWS V15.00,2014-10-01 04:14:00,
2014-10-01 00:15:00,53.7,49.0,29.92,NNW,338,1.0,3.0,84,0.00,,---,0.00,VWS V15.00,2014-10-01 04:15:00,
2014-10-01 00:16:00,53.7,49.3,29.93,NNW,338,0.0,1.0,85,0.00,,---,0.00,VWS V15.00,2014-10-01 04:16:00,
2014-10-01 00:17:00,53.7,49.3,29.93,NNW,338,0.0,1.0,85,0.00,,---,0.00,VWS V15.00,2014-10-01 04:17:00,
2014-10-01 00:18:00,53.7,49.3,29.93,NNW,338,2.0,5.0,85,0.00,,---,0.00,VWS V15.00,2014-10-01 04:18:00,
2014-10-01 00:19:00,53.7,49.3,29.93,NNW,338,1.0,2.0,85,0.00,,---,0.00,VWS V15.00,2014-10-01 04:19:00,
2014-10-01 00:20:00,53.7,49.3,29.93,ENE,68,1.0,3.0,85,0.00,,---,0.00,VWS V15.00,2014-10-01 04:20:00,
2014-10-01 00:21:00,53.7,49.3,29.93,ENE,68,0.0,2.0,85,0.00,,---,0.00,VWS V15.00,2014-10-01 04:21:00,
2014-10-01 00:22:00,53.6,49.2,29.93,NNW,338,1.0,3.0,85,0.00,,---,0.00,VWS V15.00,2014-10-01 04:22:00,
2014-10-01 00:23:00,53.6,49.2,29.93,NNW,338,1.0,2.0,85,0.00,,---,0.00,VWS V15.00,2014-10-01 04:23:00,
2014-10-01 00:24:00,53.6,49.2,29.93,NNW,338,1.0,2.0,85,0.00,,---,0.00,VWS V15.00,2014-10-01 04:24:00,
2014-10-01 00:25:00,53.6,49.2,29.93,NNW,338,1.0,2.0,85,0.00,,---,0.00,VWS V15.00,2014-10-01 04:25:00,
2014-10-01 00:26:00,53.5,49.1,29.93,NNW,338,1.0,2.0,85,0.00,,---,0.00,VWS V15.00,2014-10-01 04:26:00,
2014-10-01 00:27:00,53.5,49.1,29.93,NE,45,1.0,2.0,85,0.00,,---,0.00,VWS V15.00,2014-10-01 04:27:00,
2014-10-01 00:28:00,53.5,49.1,29.93,NE,45,1.0,2.0,85,0.00,,---,0.00,VWS V15.00,2014-10-01 04:28:00,
2014-10-01 00:29:00,53.5,49.1,29.93,NNE,22,1.0,2.0,85,0.00,,---,0.00,VWS V15.00,2014-10-01 04:29:00,
2014-10-01 00:30:00,53.5,49.1,29.93,NNE,22,1.0,3.0,85,0.00,,---,0.00,VWS V15.00,2014-10-01 04:30:00,
2014-10-01 00:31:00,53.4,49.0,29.93,NNE,22,0.0,1.0,85,0.00,,---,0.00,VWS V15.00,2014-10-01 04:31:00,
2014-10-01 00:32:00,53.4,49.0,29.93,NNE,22,1.0,3.0,85,0.00,,---,0.00,VWS V15.00,2014-10-01 04:32:00,
2014-10-01 00:33:00,53.3,48.9,29.93,NNW,338,1.0,3.0,85,0.00,,---,0.00,VWS V15.00,2014-10-01 04:33:00,
2014-10-01 00:34:00,53.3,48.9,29.93,North,0,0.0,1.0,85,0.00,,---,0.00,VWS V15.00,2014-10-01 04:34:00,
2014-10-01 00:35:00,53.3,48.9,29.93,North,0,0.0,0.0,85,0.00,,---,0.00,VWS V15.00,2014-10-01 04:35:00,
2014-10-01 00:36:00,53.3,48.9,29.93,North,0,0.0,0.0,85,0.00,,---,0.00,VWS V15.00,2014-10-01 04:36:00,
2014-10-01 00:37:00,53.3,48.9,29.93,North,0,0.0,1.0,85,0.00,,---,0.00,VWS V15.00,2014-10-01 04:37:00,
2014-10-01 00:38:00,53.3,48.9,29.93,North,0,0.0,2.0,85,0.00,,---,0.00,VWS V15.00,2014-10-01 04:38:00,
2014-10-01 00:39:00,53.3,49.2,29.93,North,0,0.0,0.0,86,0.00,,---,0.00,VWS V15.00,2014-10-01 04:39:00,
2014-10-01 00:40:00,53.3,49.2,29.93,North,0,1.0,4.0,86,0.00,,---,0.00,VWS V15.00,2014-10-01 04:40:00,
2014-10-01 00:41:00,53.2,49.1,29.93,North,0,0.0,2.0,86,0.00,,---,0.00,VWS V15.00,2014-10-01 04:41:00,
2014-10-01 00:42:00,53.2,49.1,29.93,North,0,0.0,0.0,86,0.00,,---,0.00,VWS V15.00,2014-10-01 04:42:00,
2014-10-01 00:43:00,53.2,49.1,29.93,North,0,0.0,0.0,86,0.00,,---,0.00,VWS V15.00,2014-10-01 04:43:00,
2014-10-01 00:44:00,53.2,49.1,29.93,North,0,0.0,1.0,86,0.00,,---,0.00,VWS V15.00,2014-10-01 04:44:00,
2014-10-01 00:45:00,53.2,49.1,29.93,North,0,0.0,0.0,86,0.00,,---,0.00,VWS V15.00,2014-10-01 04:45:00,
2014-10-01 00:46:00,53.2,49.1,29.93,North,0,0.0,1.0,86,0.00,,---,0.00,VWS V15.00,2014-10-01 04:46:00,
2014-10-01 00:47:00,53.1,49.0,29.93,North,0,0.0,2.0,86,0.00,,---,0.00,VWS V15.00,2014-10-01 04:47:00,
2014-10-01 00:48:00,53.1,49.0,29.93,North,0,0.0,0.0,86,0.00,,---,0.00,VWS V15.00,2014-10-01 04:48:00,
2014-10-01 00:49:00,53.1,49.0,29.93,North,0,0.0,1.0,86,0.00,,---,0.00,VWS V15.00,2014-10-01 04:49:00,
2014-10-01 00:50:00,53.1,49.0,29.93,North,0,1.0,3.0,86,0.00,,---,0.00,VWS V15.00,2014-10-01 04:50:00,
2014-10-01 00:51:00,53.1,49.0,29.93,North,0,0.0,2.0,86,0.00,,---,0.00,VWS V15.00,2014-10-01 04:51:00,
2014-10-01 00:52:00,53.1,49.0,29.93,North,0,0.0,2.0,86,0.00,,---,0.00,VWS V15.00,2014-10-01 04:52:00,
2014-10-01 00:53:00,53.0,48.9,29.93,NNW,338,1.0,2.0,86,0.00,,---,0.00,VWS V15.00,2014-10-01 04:53:00,
2014-10-01 00:54:00,53.0,48.9,29.93,NNW,338,0.0,0.0,86,0.00,,---,0.00,VWS V15.00,2014-10-01 04:54:00,
2014-10-01 00:55:00,53.0,48.9,29.93,East,90,1.0,3.0,86,0.00,,---,0.00,VWS V15.00,2014-10-01 04:55:00,
2014-10-01 00:56:00,53.0,48.9,29.93,East,90,0.0,1.0,86,0.00,,---,0.00,VWS V15.00,2014-10-01 04:56:00,
2014-10-01 00:57:00,53.0,48.9,29.93,NNW,338,2.0,4.0,86,0.00,,---,0.00,VWS V15.00,2014-10-01 04:57:00,
2014-10-01 00:58:00,53.0,48.9,29.93,NNW,338,0.0,0.0,86,0.00,,---,0.00,VWS V15.00,2014-10-01 04:58:00,
2014-10-01 00:59:00,53.0,48.9,29.93,NNW,338,0.0,0.0,86,0.00,,---,0.00,VWS V15.00,2014-10-01 04:59:00,
2014-10-01 01:00:00,53.0,48.9,29.93,NNW,338,0.0,1.0,86,0.00,,---,0.00,VWS V15.00,2014-10-01 05:00:00,
2014-10-01 01:01:00,52.9,48.8,29.93,NNW,338,0.0,0.0,86,0.00,,---,0.00,VWS V15.00,2014-10-01 05:01:00,
2014-10-01 01:02:00,52.9,48.8,29.93,NNW,338,0.0,0.0,86,0.00,,---,0.00,VWS V15.00,2014-10-01 05:02:00,
2014-10-01 01:03:00,52.9,48.8,29.93,NNW,338,0.0,1.0,86,0.00,,---,0.00,VWS V15.00,2014-10-01 05:03:00,
2014-10-01 01:04:00,52.9,48.8,29.93,NNW,338,1.0,2.0,86,0.00,,---,0.00,VWS V15.00,2014-10-01 05:04:00,
2014-10-01 01:05:00,52.9,48.8,29.93,NNW,338,0.0,0.0,86,0.00,,---,0.00,VWS V15.00,2014-10-01 05:05:00,
2014-10-01 01:06:00,52.8,48.7,29.93,NNW,338,0.0,0.0,86,0.00,,---,0.00,VWS V15.00,2014-10-01 05:06:00,
2014-10-01 01:07:00,52.8,48.7,29.93,NNW,338,0.0,0.0,86,0.00,,---,0.00,VWS V15.00,2014-10-01 05:07:00,
2014-10-01 01:08:00,52.8,48.7,29.93,NNW,338,0.0,2.0,86,0.00,,---,0.00,VWS V15.00,2014-10-01 05:08:00,
2014-10-01 01:09:00,52.8,48.7,29.93,NNW,338,0.0,1.0,86,0.00,,---,0.00,VWS V15.00,2014-10-01 05:09:00,
2014-10-01 01:10:00,52.8,49.0,29.93,NNW,338,1.0,1.0,87,0.00,,---,0.00,VWS V15.00,2014-10-01 05:10:00,
2014-10-01 01:11:00,52.8,49.0,29.93,NNW,338,1.0,2.0,87,0.00,,---,0.00,VWS V15.00,2014-10-01 05:11:00,
2014-10-01 01:12:00,52.8,49.0,29.93,NNW,338,0.0,0.0,87,0.00,,---,0.00,VWS V15.00,2014-10-01 05:12:00,
2014-10-01 01:13:00,52.8,49.0,29.93,NNW,338,0.0,1.0,87,0.00,,---,0.00,VWS V15.00,2014-10-01 05:13:00,
2014-10-01 01:14:00,52.8,49.0,29.93,NNW,338,1.0,2.0,87,0.00,,---,0.00,VWS V15.00,2014-10-01 05:14:00,
2014-10-01 01:15:00,52.7,49.0,29.93,NNW,338,0.0,1.0,87,0.00,,---,0.00,VWS V15.00,2014-10-01 05:15:00,
2014-10-01 01:16:00,52.7,49.0,29.93,NNW,338,1.0,2.0,87,0.00,,---,0.00,VWS V15.00,2014-10-01 05:16:00,
2014-10-01 01:17:00,52.7,49.0,29.93,NNW,338,1.0,2.0,87,0.00,,---,0.00,VWS V15.00,2014-10-01 05:17:00,
2014-10-01 01:18:00,52.9,49.1,29.93,NNW,338,0.0,1.0,87,0.00,,---,0.00,VWS V15.00,2014-10-01 05:18:00,
2014-10-01 01:19:00,53.0,48.9,29.93,NNW,338,0.0,1.0,86,0.00,,---,0.00,VWS V15.00,2014-10-01 05:19:00,
2014-10-01 01:20:00,53.0,48.9,29.93,NNW,338,0.0,0.0,86,0.00,,---,0.00,VWS V15.00,2014-10-01 05:20:00,
2014-10-01 01:21:00,53.0,48.9,29.93,NNW,338,0.0,0.0,86,0.00,,---,0.00,VWS V15.00,2014-10-01 05:21:00,
2014-10-01 01:22:00,52.9,48.8,29.93,NNW,338,0.0,0.0,86,0.00,,---,0.00,VWS V15.00,2014-10-01 05:22:00,
2014-10-01 01:23:00,52.9,48.8,29.93,NNW,338,0.0,1.0,86,0.00,,---,0.00,VWS V15.00,2014-10-01 05:23:00,
2014-10-01 01:24:00,52.9,49.1,29.93,NNW,338,0.0,1.0,87,0.00,,---,0.00,VWS V15.00,2014-10-01 05:24:00,
2014-10-01 01:25:00,52.9,49.1,29.93,NNW,338,0.0,1.0,87,0.00,,---,0.00,VWS V15.00,2014-10-01 05:25:00,
2014-10-01 01:26:00,52.9,49.1,29.93,NNW,338,0.0,1.0,87,0.00,,---,0.00,VWS V15.00,2014-10-01 05:26:00,
2014-10-01 01:27:00,52.8,49.0,29.93,NNW,338,0.0,1.0,87,0.00,,---,0.00,VWS V15.00,2014-10-01 05:27:00,
2014-10-01 01:28:00,52.8,49.0,29.93,NNW,338,0.0,0.0,87,0.00,,---,0.00,VWS V15.00,2014-10-01 05:28:00,
2014-10-01 01:29:00,52.8,49.0,29.93,NNW,338,0.0,1.0,87,0.00,,---,0.00,VWS V15.00,2014-10-01 05:29:00,
2014-10-01 01:30:00,52.8,49.0,29.93,NNW,338,1.0,2.0,87,0.00,,---,0.00,VWS V15.00,2014-10-01 05:30:00,
2014-10-01 01:31:00,52.7,49.0,29.93,NNW,338,0.0,0.0,87,0.00,,---,0.00,VWS V15.00,2014-10-01 05:31:00,
2014-10-01 01:32:00,52.7,49.0,29.93,NNW,338,0.0,0.0,87,0.00,,---,0.00,VWS V15.00,2014-10-01 05:32:00,
2014-10-01 01:33:00,52.7,49.0,29.93,NNW,338,0.0,0.0,87,0.00,,---,0.00,VWS V15.00,2014-10-01 05:33:00,
2014-10-01 01:34:00,52.7,49.0,29.93,NNW,338,0.0,1.0,87,0.00,,---,0.00,VWS V15.00,2014-10-01 05:34:00,
2014-10-01 01:35:00,52.7,49.0,29.93,NNW,338,0.0,0.0,87,0.00,,---,0.00,VWS V15.00,2014-10-01 05:35:00,
2014-10-01 01:36:00,52.7,49.0,29.93,NNW,338,0.0,0.0,87,0.00,,---,0.00,VWS V15.00,2014-10-01 05:36:00,
2014-10-01 01:37:00,52.7,49.0,29.93,NNW,338,0.0,1.0,87,0.00,,---,0.00,VWS V15.00,2014-10-01 05:37:00,
2014-10-01 01:38:00,52.7,49.0,29.93,NNW,338,0.0,0.0,87,0.00,,---,0.00,VWS V15.00,2014-10-01 05:38:00,
2014-10-01 01:39:00,52.7,49.0,29.93,NNW,338,0.0,2.0,87,0.00,,---,0.00,VWS V15.00,2014-10-01 05:39:00,
2014-10-01 01:40:00,52.6,48.8,29.93,NNW,338,0.0,1.0,87,0.00,,---,0.00,VWS V15.00,2014-10-01 05:40:00,
2014-10-01 01:41:00,52.6,48.8,29.93,NNW,338,0.0,0.0,87,0.00,,---,0.00,VWS V15.00,2014-10-01 05:41:00,
2014-10-01 01:42:00,52.7,49.0,29.93,NNW,338,0.0,0.0,87,0.00,,---,0.00,VWS V15.00,2014-10-01 05:42:00,
2014-10-01 01:43:00,52.6,48.8,29.93,NNW,338,0.0,0.0,87,0.00,,---,0.00,VWS V15.00,2014-10-01 05:43:00,
2014-10-01 01:44:00,52.6,48.8,29.93,NNW,338,0.0,1.0,87,0.00,,---,0.00,VWS V15.00,2014-10-01 05:44:00,
2014-10-01 01:45:00,52.6,48.8,29.93,NNW,338,0.0,0.0,87,0.00,,---,0.00,VWS V15.00,2014-10-01 05:45:00,
2014-10-01 01:46:00,52.6,48.8,29.93,NNW,338,0.0,0.0,87,0.00,,---,0.00,VWS V15.00,2014-10-01 05:46:00,
2014-10-01 01:47:00,52.6,48.8,29.93,NNW,338,0.0,0.0,87,0.00,,---,0.00,VWS V15.00,2014-10-01 05:47:00,
2014-10-01 01:48:00,52.5,48.8,29.93,NNW,338,0.0,0.0,87,0.00,,---,0.00,VWS V15.00,2014-10-01 05:48:00,
2014-10-01 01:49:00,52.5,48.8,29.93,NNW,338,0.0,0.0,87,0.00,,---,0.00,VWS V15.00,2014-10-01 05:49:00,
2014-10-01 01:50:00,52.5,48.8,29.93,NNW,338,0.0,0.0,87,0.00,,---,0.00,VWS V15.00,2014-10-01 05:50:00,
2014-10-01 01:51:00,52.5,48.8,29.93,NNW,338,0.0,0.0,87,0.00,,---,0.00,VWS V15.00,2014-10-01 05:51:00,
2014-10-01 01:52:00,52.5,48.8,29.93,NNW,338,0.0,0.0,87,0.00,,---,0.00,VWS V15.00,2014-10-01 05:52:00,
2014-10-01 01:53:00,52.4,48.7,29.93,NNW,338,0.0,0.0,87,0.00,,---,0.00,VWS V15.00,2014-10-01 05:53:00,
2014-10-01 01:54:00,52.4,48.7,29.93,NNW,338,0.0,0.0,87,0.00,,---,0.00,VWS V15.00,2014-10-01 05:54:00,
2014-10-01 01:55:00,52.4,48.7,29.93,NNW,338,0.0,0.0,87,0.00,,---,0.00,VWS V15.00,2014-10-01 05:55:00,
2014-10-01 01:56:00,52.4,48.7,29.93,NNW,338,0.0,0.0,87,0.00,,---,0.00,VWS V15.00,2014-10-01 05:56:00,
2014-10-01 01:57:00,52.4,48.7,29.93,NNW,338,0.0,0.0,87,0.00,,---,0.00,VWS V15.00,2014-10-01 05:57:00,
2014-10-01 01:58:00,52.3,48.5,29.93,NNW,338,0.0,0.0,87,0.00,,---,0.00,VWS V15.00,2014-10-01 05:58:00,
2014-10-01 01:59:00,52.3,48.5,29.94,NNW,338,0.0,0.0,87,0.00,,---,0.00,VWS V15.00,2014-10-01 05:59:00,
2014-10-01 02:00:00,52.3,48.5,29.93,NNW,338,0.0,0.0,87,0.00,,---,0.00,VWS V15.00,2014-10-01 06:00:00,
2014-10-01 02:01:00,52.3,48.5,29.93,NNW,338,0.0,0.0,87,0.00,,---,0.00,VWS V15.00,2014-10-01 06:01:00,
2014-10-01 02:02:00,52.2,48.5,29.93,NNW,338,0.0,0.0,87,0.00,,---,0.00,VWS V15.00,2014-10-01 06:02:00,
2014-10-01 02:03:00,52.2,48.8,29.93,NNW,338,0.0,0.0,88,0.00,,---,0.00,VWS V15.00,2014-10-01 06:03:00,
2014-10-01 02:04:00,52.1,48.7,29.93,NNW,338,0.0,0.0,88,0.00,,---,0.00,VWS V15.00,2014-10-01 06:04:00,
2014-10-01 02:05:00,52.1,48.7,29.93,NNW,338,0.0,0.0,88,0.00,,---,0.00,VWS V15.00,2014-10-01 06:05:00,
2014-10-01 02:06:00,52.1,48.7,29.93,NNW,338,0.0,0.0,88,0.00,,---,0.00,VWS V15.00,2014-10-01 06:06:00,
2014-10-01 02:07:00,52.0,48.6,29.93,NNW,338,0.0,0.0,88,0.00,,---,0.00,VWS V15.00,2014-10-01 06:07:00,
2014-10-01 02:08:00,52.0,48.6,29.93,NNW,338,0.0,0.0,88,0.00,,---,0.00,VWS V15.00,2014-10-01 06:08:00,
2014-10-01 02:09:00,52.0,48.6,29.93,NNW,338,0.0,0.0,88,0.00,,---,0.00,VWS V15.00,2014-10-01 06:09:00,
2014-10-01 02:10:00,52.0,48.6,29.93,NNW,338,0.0,0.0,88,0.00,,---,0.00,VWS V15.00,2014-10-01 06:10:00,
2014-10-01 02:11:00,51.9,48.5,29.93,NNW,338,0.0,0.0,88,0.00,,---,0.00,VWS V15.00,2014-10-01 06:11:00,
2014-10-01 02:12:00,51.9,48.5,29.93,NNW,338,0.0,0.0,88,0.00,,---,0.00,VWS V15.00,2014-10-01 06:12:00,
2014-10-01 02:13:00,51.9,48.5,29.93,NNW,338,0.0,0.0,88,0.00,,---,0.00,VWS V15.00,2014-10-01 06:13:00,
2014-10-01 02:14:00,51.9,48.5,29.93,NNW,338,0.0,0.0,88,0.00,,---,0.00,VWS V15.00,2014-10-01 06:14:00,
2014-10-01 02:15:00,51.8,48.4,29.93,NNW,338,0.0,0.0,88,0.00,,---,0.00,VWS V15.00,2014-10-01 06:15:00,
2014-10-01 02:16:00,51.8,48.4,29.93,NNW,338,0.0,0.0,88,0.00,,---,0.00,VWS V15.00,2014-10-01 06:16:00,
2014-10-01 02:17:00,51.8,48.4,29.93,NNW,338,0.0,0.0,88,0.00,,---,0.00,VWS V15.00,2014-10-01 06:17:00,
2014-10-01 02:18:00,51.7,48.3,29.93,NNW,338,0.0,0.0,88,0.00,,---,0.00,VWS V15.00,2014-10-01 06:18:00,
2014-10-01 02:19:00,51.7,48.3,29.93,NNW,338,0.0,0.0,88,0.00,,---,0.00,VWS V15.00,2014-10-01 06:19:00,
2014-10-01 02:20:00,51.6,48.2,29.94,NNW,338,0.0,0.0,88,0.00,,---,0.00,VWS V15.00,2014-10-01 06:20:00,
2014-10-01 02:21:00,51.6,48.2,29.93,NNW,338,0.0,0.0,88,0.00,,---,0.00,VWS V15.00,2014-10-01 06:21:00,
2014-10-01 02:22:00,51.5,48.1,29.93,NNW,338,0.0,0.0,88,0.00,,---,0.00,VWS V15.00,2014-10-01 06:22:00,
2014-10-01 02:23:00,51.5,48.1,29.93,NNW,338,0.0,0.0,88,0.00,,---,0.00,VWS V15.00,2014-10-01 06:23:00,
2014-10-01 02:24:00,51.4,48.0,29.94,NNW,338,0.0,0.0,88,0.00,,---,0.00,VWS V15.00,2014-10-01 06:24:00,
2014-10-01 02:25:00,51.4,48.0,29.93,NNW,338,0.0,0.0,88,0.00,,---,0.00,VWS V15.00,2014-10-01 06:25:00,
2014-10-01 02:26:00,51.3,47.9,29.94,NNW,338,0.0,0.0,88,0.00,,---,0.00,VWS V15.00,2014-10-01 06:26:00,
2014-10-01 02:27:00,51.3,48.2,29.94,NNW,338,0.0,0.0,89,0.00,,---,0.00,VWS V15.00,2014-10-01 06:27:00,
2014-10-01 02:28:00,51.2,48.1,29.94,NNW,338,0.0,0.0,89,0.00,,---,0.00,VWS V15.00,2014-10-01 06:28:00,
2014-10-01 02:29:00,51.2,48.1,29.94,NNW,338,0.0,0.0,89,0.00,,---,0.00,VWS V15.00,2014-10-01 06:29:00,
2014-10-01 02:30:00,51.1,48.0,29.94,NNW,338,0.0,0.0,89,0.00,,---,0.00,VWS V15.00,2014-10-01 06:30:00,
2014-10-01 02:31:00,51.1,48.9,29.94,NNW,338,0.0,0.0,92,0.00,,---,0.00,VWS V15.00,2014-10-01 06:31:00,
2014-10-01 02:32:00,51.0,47.9,29.94,NNW,338,0.0,0.0,89,0.00,,---,0.00,VWS V15.00,2014-10-01 06:32:00,
2014-10-01 02:33:00,51.0,47.9,29.94,NNW,338,0.0,0.0,89,0.00,,---,0.00,VWS V15.00,2014-10-01 06:33:00,
2014-10-01 02:34:00,50.9,47.8,29.94,NNW,338,0.0,0.0,89,0.00,,---,0.00,VWS V15.00,2014-10-01 06:34:00,
2014-10-01 02:35:00,50.9,48.1,29.94,NNW,338,0.0,0.0,90,0.00,,---,0.00,VWS V15.00,2014-10-01 06:35:00,
2014-10-01 02:36:00,50.9,48.1,29.94,NNW,338,0.0,0.0,90,0.00,,---,0.00,VWS V15.00,2014-10-01 06:36:00,
2014-10-01 02:37:00,50.9,48.1,29.94,NNW,338,0.0,0.0,90,0.00,,---,0.00,VWS V15.00,2014-10-01 06:37:00,
2014-10-01 02:38:00,50.8,48.0,29.94,NNW,338,0.0,0.0,90,0.00,,---,0.00,VWS V15.00,2014-10-01 06:38:00,
2014-10-01 02:39:00,50.8,48.0,29.94,NNW,338,0.0,0.0,90,0.00,,---,0.00,VWS V15.00,2014-10-01 06:39:00,
2014-10-01 02:40:00,50.8,48.0,29.94,NNW,338,0.0,0.0,90,0.00,,---,0.00,VWS V15.00,2014-10-01 06:40:00,
2014-10-01 02:41:00,50.7,47.9,29.94,NNW,338,0.0,0.0,90,0.00,,---,0.00,VWS V15.00,2014-10-01 06:41:00,
2014-10-01 02:42:00,50.7,47.9,29.94,NNW,338,0.0,0.0,90,0.00,,---,0.00,VWS V15.00,2014-10-01 06:42:00,
2014-10-01 02:43:00,50.6,47.8,29.94,NNW,338,0.0,0.0,90,0.00,,---,0.00,VWS V15.00,2014-10-01 06:43:00,
2014-10-01 02:44:00,50.6,47.8,29.94,NNW,338,0.0,0.0,90,0.00,,---,0.00,VWS V15.00,2014-10-01 06:44:00,
2014-10-01 02:45:00,50.6,47.8,29.94,NNW,338,0.0,0.0,90,0.00,,---,0.00,VWS V15.00,2014-10-01 06:45:00,
2014-10-01 02:46:00,50.6,47.8,29.94,NNW,338,0.0,0.0,90,0.00,,---,0.00,VWS V15.00,2014-10-01 06:46:00,
2014-10-01 02:47:00,50.5,47.7,29.94,NNW,338,0.0,0.0,90,0.00,,---,0.00,VWS V15.00,2014-10-01 06:47:00,
2014-10-01 02:48:00,50.5,47.7,29.94,NNW,338,0.0,0.0,90,0.00,,---,0.00,VWS V15.00,2014-10-01 06:48:00,
2014-10-01 02:49:00,50.5,47.7,29.94,NNW,338,0.0,0.0,90,0.00,,---,0.00,VWS V15.00,2014-10-01 06:49:00,
2014-10-01 02:50:00,50.4,47.6,29.94,NNW,338,0.0,0.0,90,0.00,,---,0.00,VWS V15.00,2014-10-01 06:50:00,
2014-10-01 02:51:00,50.4,47.6,29.94,NNW,338,0.0,0.0,90,0.00,,---,0.00,VWS V15.00,2014-10-01 06:51:00,
2014-10-01 02:52:00,50.4,47.6,29.94,NNW,338,0.0,0.0,90,0.00,,---,0.00,VWS V15.00,2014-10-01 06:52:00,
2014-10-01 02:53:00,50.4,47.6,29.94,NNW,338,0.0,0.0,90,0.00,,---,0.00,VWS V15.00,2014-10-01 06:53:00,
2014-10-01 02:54:00,50.3,47.5,29.94,NNW,338,0.0,0.0,90,0.00,,---,0.00,VWS V15.00,2014-10-01 06:54:00,
2014-10-01 02:55:00,50.3,47.5,29.94,NNW,338,0.0,0.0,90,0.00,,---,0.00,VWS V15.00,2014-10-01 06:55:00,
2014-10-01 02:57:00,50.3,47.8,29.94,NNW,338,0.0,0.0,91,0.00,,---,0.00,VWS V15.00,2014-10-01 06:57:00,
2014-10-01 02:59:00,50.2,47.7,29.94,NNW,338,0.0,0.0,91,0.00,,---,0.00,VWS V15.00,2014-10-01 06:59:00,
2014-10-01 03:01:00,50.2,47.7,29.94,NNW,338,0.0,0.0,91,0.00,,---,0.00,VWS V15.00,2014-10-01 07:01:00,
2014-10-01 03:02:00,50.2,47.7,29.94,NNW,338,0.0,0.0,91,0.00,,---,0.00,VWS V15.00,2014-10-01 07:02:00,
2014-10-01 03:03:00,50.2,47.7,29.94,NNW,338,0.0,0.0,91,0.00,,---,0.00,VWS V15.00,2014-10-01 07:03:00,
2014-10-01 03:04:00,50.1,47.6,29.94,NNW,338,0.0,0.0,91,0.00,,---,0.00,VWS V15.00,2014-10-01 07:04:00,
2014-10-01 03:05:00,50.1,47.6,29.94,NNW,338,0.0,0.0,91,0.00,,---,0.00,VWS V15.00,2014-10-01 07:05:00,
2014-10-01 03:06:00,50.1,47.6,29.93,NNW,338,0.0,0.0,91,0.00,,---,0.00,VWS V15.00,2014-10-01 07:06:00,
2014-10-01 03:07:00,50.1,47.6,29.93,NNW,338,0.0,0.0,91,0.00,,---,0.00,VWS V15.00,2014-10-01 07:07:00,
2014-10-01 03:08:00,50.0,47.5,29.93,NNW,338,0.0,0.0,91,0.00,,---,0.00,VWS V15.00,2014-10-01 07:08:00,
2014-10-01 03:09:00,50.0,47.5,29.93,NNW,338,0.0,0.0,91,0.00,,---,0.00,VWS V15.00,2014-10-01 07:09:00,
2014-10-01 03:10:00,50.0,47.5,29.93,NNW,338,0.0,0.0,91,0.00,,---,0.00,VWS V15.00,2014-10-01 07:10:00,
2014-10-01 03:11:00,50.0,47.5,29.93,NNW,338,0.0,0.0,91,0.00,,---,0.00,VWS V15.00,2014-10-01 07:11:00,
2014-10-01 03:12:00,49.9,47.4,29.93,NNW,338,0.0,0.0,91,0.00,,---,0.00,VWS V15.00,2014-10-01 07:12:00,
2014-10-01 03:13:00,49.9,47.4,29.93,NNW,338,0.0,0.0,91,0.00,,---,0.00,VWS V15.00,2014-10-01 07:13:00,
2014-10-01 03:14:00,49.9,47.4,29.93,NNW,338,0.0,0.0,91,0.00,,---,0.00,VWS V15.00,2014-10-01 07:14:00,
2014-10-01 03:15:00,49.9,47.4,29.93,NNW,338,0.0,0.0,91,0.00,,---,0.00,VWS V15.00,2014-10-01 07:15:00,
2014-10-01 03:16:00,49.8,47.3,29.93,NNW,338,0.0,0.0,91,0.00,,---,0.00,VWS V15.00,2014-10-01 07:16:00,
2014-10-01 03:17:00,49.8,47.3,29.93,NNW,338,0.0,0.0,91,0.00,,---,0.00,VWS V15.00,2014-10-01 07:17:00,
2014-10-01 03:18:00,49.8,47.3,29.93,NNW,338,0.0,0.0,91,0.00,,---,0.00,VWS V15.00,2014-10-01 07:18:00,
2014-10-01 03:19:00,49.7,47.2,29.93,NNW,338,0.0,0.0,91,0.00,,---,0.00,VWS V15.00,2014-10-01 07:19:00,
2014-10-01 03:20:00,49.7,47.2,29.93,NNW,338,0.0,0.0,91,0.00,,---,0.00,VWS V15.00,2014-10-01 07:20:00,
2014-10-01 03:21:00,49.7,47.2,29.93,NNW,338,0.0,0.0,91,0.00,,---,0.00,VWS V15.00,2014-10-01 07:21:00,
2014-10-01 03:22:00,49.7,47.2,29.93,NNW,338,0.0,0.0,91,0.00,,---,0.00,VWS V15.00,2014-10-01 07:22:00,
2014-10-01 03:23:00,49.7,47.2,29.93,NNW,338,0.0,0.0,91,0.00,,---,0.00,VWS V15.00,2014-10-01 07:23:00,
2014-10-01 03:24:00,49.6,47.1,29.93,NNW,338,0.0,0.0,91,0.00,,---,0.00,VWS V15.00,2014-10-01 07:24:00,
2014-10-01 03:25:00,49.6,47.1,29.93,NNW,338,0.0,0.0,91,0.00,,---,0.00,VWS V15.00,2014-10-01 07:25:00,
2014-10-01 03:26:00,49.6,47.1,29.93,NNW,338,0.0,0.0,91,0.00,,---,0.00,VWS V15.00,2014-10-01 07:26:00,
2014-10-01 03:27:00,49.6,47.1,29.93,NNW,338,0.0,0.0,91,0.00,,---,0.00,VWS V15.00,2014-10-01 07:27:00,
2014-10-01 03:28:00,49.6,47.4,29.93,NNW,338,0.0,0.0,92,0.00,,---,0.00,VWS V15.00,2014-10-01 07:28:00,
2014-10-01 03:29:00,49.6,47.4,29.93,NNW,338,0.0,0.0,92,0.00,,---,0.00,VWS V15.00,2014-10-01 07:29:00,
2014-10-01 03:30:00,49.5,47.3,29.93,NNW,338,0.0,0.0,92,0.00,,---,0.00,VWS V15.00,2014-10-01 07:30:00,
2014-10-01 03:31:00,49.5,47.3,29.93,NNW,338,0.0,0.0,92,0.00,,---,0.00,VWS V15.00,2014-10-01 07:31:00,
2014-10-01 03:32:00,49.5,47.3,29.93,NNW,338,0.0,0.0,92,0.00,,---,0.00,VWS V15.00,2014-10-01 07:32:00,
2014-10-01 03:33:00,49.5,47.3,29.93,NNW,338,0.0,0.0,92,0.00,,---,0.00,VWS V15.00,2014-10-01 07:33:00,
2014-10-01 03:34:00,49.5,47.3,29.93,NNW,338,0.0,0.0,92,0.00,,---,0.00,VWS V15.00,2014-10-01 07:34:00,
2014-10-01 03:35:00,49.4,47.2,29.93,NNW,338,0.0,0.0,92,0.00,,---,0.00,VWS V15.00,2014-10-01 07:35:00,
2014-10-01 03:36:00,49.5,47.3,29.93,NNW,338,0.0,0.0,92,0.00,,---,0.00,VWS V15.00,2014-10-01 07:36:00,
2014-10-01 03:37:00,49.4,47.2,29.93,NNW,338,0.0,0.0,92,0.00,,---,0.00,VWS V15.00,2014-10-01 07:37:00,
2014-10-01 03:38:00,49.4,47.2,29.93,NNW,338,0.0,0.0,92,0.00,,---,0.00,VWS V15.00,2014-10-01 07:38:00,
2014-10-01 03:39:00,49.4,47.2,29.93,NNW,338,0.0,0.0,92,0.00,,---,0.00,VWS V15.00,2014-10-01 07:39:00,
2014-10-01 03:40:00,49.4,47.2,29.93,NNW,338,0.0,0.0,92,0.00,,---,0.00,VWS V15.00,2014-10-01 07:40:00,
2014-10-01 03:41:00,49.4,47.2,29.93,NNW,338,0.0,0.0,92,0.00,,---,0.00,VWS V15.00,2014-10-01 07:41:00,
2014-10-01 03:42:00,49.4,47.2,29.93,NNW,338,0.0,0.0,92,0.00,,---,0.00,VWS V15.00,2014-10-01 07:42:00,
2014-10-01 03:43:00,49.4,47.2,29.93,NNW,338,0.0,0.0,92,0.00,,---,0.00,VWS V15.00,2014-10-01 07:43:00,
2014-10-01 03:44:00,49.4,47.2,29.93,NNW,338,0.0,0.0,92,0.00,,---,0.00,VWS V15.00,2014-10-01 07:44:00,
2014-10-01 03:45:00,49.4,47.2,29.92,NNW,338,0.0,0.0,92,0.00,,---,0.00,VWS V15.00,2014-10-01 07:45:00,
2014-10-01 03:46:00,49.3,47.1,29.92,NNW,338,0.0,0.0,92,0.00,,---,0.00,VWS V15.00,2014-10-01 07:46:00,
2014-10-01 03:47:00,49.3,47.1,29.93,NNW,338,0.0,0.0,92,0.00,,---,0.00,VWS V15.00,2014-10-01 07:47:00,
2014-10-01 03:48:00,49.3,47.1,29.93,NNW,338,0.0,0.0,92,0.00,,---,0.00,VWS V15.00,2014-10-01 07:48:00,
2014-10-01 03:49:00,49.3,47.1,29.93,NNW,338,0.0,0.0,92,0.00,,---,0.00,VWS V15.00,2014-10-01 07:49:00,
2014-10-01 03:50:00,49.3,47.1,29.93,NNW,338,0.0,0.0,92,0.00,,---,0.00,VWS V15.00,2014-10-01 07:50:00,
2014-10-01 03:51:00,49.2,47.0,29.93,NNW,338,0.0,0.0,92,0.00,,---,0.00,VWS V15.00,2014-10-01 07:51:00,
2014-10-01 03:52:00,49.2,47.0,29.93,NNW,338,0.0,0.0,92,0.00,,---,0.00,VWS V15.00,2014-10-01 07:52:00,
2014-10-01 03:53:00,49.2,47.0,29.93,NNW,338,0.0,0.0,92,0.00,,---,0.00,VWS V15.00,2014-10-01 07:53:00,
2014-10-01 03:54:00,49.2,47.0,29.93,NNW,338,0.0,0.0,92,0.00,,---,0.00,VWS V15.00,2014-10-01 07:54:00,
2014-10-01 03:55:00,49.2,47.0,29.93,NNW,338,0.0,0.0,92,0.00,,---,0.00,VWS V15.00,2014-10-01 07:55:00,
2014-10-01 03:56:00,49.2,47.0,29.93,NNW,338,0.0,0.0,92,0.00,,---,0.00,VWS V15.00,2014-10-01 07:56:00,
2014-10-01 03:57:00,49.2,47.0,29.93,NNW,338,0.0,0.0,92,0.00,,---,0.00,VWS V15.00,2014-10-01 07:57:00,
2014-10-01 03:58:00,49.2,47.0,29.93,NNW,338,0.0,0.0,92,0.00,,---,0.00,VWS V15.00,2014-10-01 07:58:00,
2014-10-01 03:59:00,49.2,47.3,29.93,NNW,338,0.0,0.0,93,0.00,,---,0.00,VWS V15.00,2014-10-01 07:59:00,
2014-10-01 04:00:00,49.2,47.3,29.93,NNW,338,0.0,0.0,93,0.00,,---,0.00,VWS V15.00,2014-10-01 08:00:00,
2014-10-01 04:01:00,49.1,46.9,29.93,NNW,338,0.0,0.0,92,0.00,,---,0.00,VWS V15.00,2014-10-01 08:01:00,
2014-10-01 04:02:00,49.1,46.9,29.93,NNW,338,0.0,0.0,92,0.00,,---,0.00,VWS V15.00,2014-10-01 08:02:00,
2014-10-01 04:03:00,49.1,47.2,29.93,NNW,338,0.0,0.0,93,0.00,,---,0.00,VWS V15.00,2014-10-01 08:03:00,
2014-10-01 04:04:00,49.1,47.2,29.93,NNW,338,0.0,0.0,93,0.00,,---,0.00,VWS V15.00,2014-10-01 08:04:00,
2014-10-01 04:05:00,49.1,47.2,29.93,NNW,338,0.0,0.0,93,0.00,,---,0.00,VWS V15.00,2014-10-01 08:05:00,
2014-10-01 04:06:00,49.1,47.2,29.93,NNW,338,0.0,0.0,93,0.00,,---,0.00,VWS V15.00,2014-10-01 08:06:00,
2014-10-01 04:07:00,49.1,47.2,29.93,NNW,338,0.0,0.0,93,0.00,,---,0.00,VWS V15.00,2014-10-01 08:07:00,
2014-10-01 04:08:00,49.1,47.2,29.93,NNW,338,0.0,0.0,93,0.00,,---,0.00,VWS V15.00,2014-10-01 08:08:00,
2014-10-01 04:09:00,49.1,47.2,29.93,NNW,338,0.0,0.0,93,0.00,,---,0.00,VWS V15.00,2014-10-01 08:09:00,
2014-10-01 04:10:00,49.0,47.1,29.93,NNW,338,0.0,0.0,93,0.00,,---,0.00,VWS V15.00,2014-10-01 08:10:00,
2014-10-01 04:11:00,49.0,47.1,29.93,NNW,338,0.0,0.0,93,0.00,,---,0.00,VWS V15.00,2014-10-01 08:11:00,
2014-10-01 04:12:00,49.0,47.1,29.93,NNW,338,0.0,0.0,93,0.00,,---,0.00,VWS V15.00,2014-10-01 08:12:00,
2014-10-01 04:13:00,49.0,47.1,29.93,NNW,338,0.0,0.0,93,0.00,,---,0.00,VWS V15.00,2014-10-01 08:13:00,
2014-10-01 04:14:00,49.0,47.1,29.94,NNW,338,0.0,0.0,93,0.00,,---,0.00,VWS V15.00,2014-10-01 08:14:00,
2014-10-01 04:15:00,49.0,47.1,29.93,NNW,338,0.0,0.0,93,0.00,,---,0.00,VWS V15.00,2014-10-01 08:15:00,
2014-10-01 04:16:00,49.0,47.1,29.93,NNW,338,0.0,0.0,93,0.00,,---,0.00,VWS V15.00,2014-10-01 08:16:00,
2014-10-01 04:17:00,49.0,47.1,29.93,NNW,338,0.0,0.0,93,0.00,,---,0.00,VWS V15.00,2014-10-01 08:17:00,
2014-10-01 04:18:00,49.0,47.1,29.94,NNW,338,0.0,0.0,93,0.00,,---,0.00,VWS V15.00,2014-10-01 08:18:00,
2014-10-01 04:19:00,49.0,47.1,29.93,NNW,338,0.0,0.0,93,0.00,,---,0.00,VWS V15.00,2014-10-01 08:19:00,
2014-10-01 04:20:00,49.0,47.1,29.93,NNW,338,0.0,0.0,93,0.00,,---,0.00,VWS V15.00,2014-10-01 08:20:00,
2014-10-01 04:21:00,49.0,47.1,29.93,NNW,338,0.0,0.0,93,0.00,,---,0.00,VWS V15.00,2014-10-01 08:21:00,
2014-10-01 04:22:00,49.0,47.1,29.93,NNW,338,0.0,0.0,93,0.00,,---,0.00,VWS V15.00,2014-10-01 08:22:00,
2014-10-01 04:23:00,49.0,47.1,29.93,NNW,338,0.0,0.0,93,0.00,,---,0.00,VWS V15.00,2014-10-01 08:23:00,
2014-10-01 04:24:00,49.0,47.1,29.93,NNW,338,0.0,0.0,93,0.00,,---,0.00,VWS V15.00,2014-10-01 08:24:00,
2014-10-01 04:25:00,48.9,47.0,29.93,NNW,338,0.0,0.0,93,0.00,,---,0.00,VWS V15.00,2014-10-01 08:25:00,
2014-10-01 04:26:00,48.9,47.0,29.93,NNW,338,0.0,0.0,93,0.00,,---,0.00,VWS V15.00,2014-10-01 08:26:00,
2014-10-01 04:27:00,48.9,47.0,29.93,NNW,338,0.0,0.0,93,0.00,,---,0.00,VWS V15.00,2014-10-01 08:27:00,
2014-10-01 04:28:00,48.9,47.0,29.93,NNW,338,0.0,0.0,93,0.00,,---,0.00,VWS V15.00,2014-10-01 08:28:00,
2014-10-01 04:29:00,48.9,47.0,29.93,NNW,338,0.0,0.0,93,0.00,,---,0.00,VWS V15.00,2014-10-01 08:29:00,
2014-10-01 04:30:00,48.9,47.0,29.93,NNW,338,0.0,0.0,93,0.00,,---,0.00,VWS V15.00,2014-10-01 08:30:00,
2014-10-01 04:31:00,48.9,47.0,29.93,NNW,338,0.0,0.0,93,0.00,,---,0.00,VWS V15.00,2014-10-01 08:31:00,
2014-10-01 04:32:00,48.9,47.0,29.93,NNW,338,0.0,0.0,93,0.00,,---,0.00,VWS V15.00,2014-10-01 08:32:00,
2014-10-01 04:33:00,48.9,47.0,29.93,NNW,338,0.0,0.0,93,0.00,,---,0.00,VWS V15.00,2014-10-01 08:33:00,
2014-10-01 04:34:00,48.8,46.9,29.93,NNW,338,0.0,0.0,93,0.00,,---,0.00,VWS V15.00,2014-10-01 08:34:00,
2014-10-01 04:35:00,48.8,46.9,29.93,NNW,338,0.0,0.0,93,0.00,,---,0.00,VWS V15.00,2014-10-01 08:35:00,
2014-10-01 04:36:00,48.8,46.9,29.93,NNW,338,0.0,0.0,93,0.00,,---,0.00,VWS V15.00,2014-10-01 08:36:00,
2014-10-01 04:37:00,48.8,46.9,29.93,NNW,338,0.0,0.0,93,0.00,,---,0.00,VWS V15.00,2014-10-01 08:37:00,
2014-10-01 04:38:00,48.8,46.9,29.93,NNW,338,0.0,0.0,93,0.00,,---,0.00,VWS V15.00,2014-10-01 08:38:00,
2014-10-01 04:39:00,48.8,46.9,29.93,NNW,338,0.0,0.0,93,0.00,,---,0.00,VWS V15.00,2014-10-01 08:39:00,
2014-10-01 04:40:00,48.8,46.9,29.93,NNW,338,0.0,0.0,93,0.00,,---,0.00,VWS V15.00,2014-10-01 08:40:00,
2014-10-01 04:41:00,48.8,46.9,29.93,NNW,338,0.0,0.0,93,0.00,,---,0.00,VWS V15.00,2014-10-01 08:41:00,
2014-10-01 04:42:00,48.8,46.9,29.93,NNW,338,0.0,0.0,93,0.00,,---,0.00,VWS V15.00,2014-10-01 08:42:00,
2014-10-01 04:43:00,48.8,46.9,29.93,NNW,338,0.0,0.0,93,0.00,,---,0.00,VWS V15.00,2014-10-01 08:43:00,
2014-10-01 04:44:00,48.8,46.9,29.93,NNW,338,0.0,0.0,93,0.00,,---,0.00,VWS V15.00,2014-10-01 08:44:00,
2014-10-01 04:45:00,48.8,46.9,29.93,NNW,338,0.0,0.0,93,0.00,,---,0.00,VWS V15.00,2014-10-01 08:45:00,
2014-10-01 04:46:00,48.8,46.9,29.93,NNW,338,0.0,0.0,93,0.00,,---,0.00,VWS V15.00,2014-10-01 08:46:00,
2014-10-01 04:47:00,48.8,46.9,29.93,NNW,338,0.0,0.0,93,0.00,,---,0.00,VWS V15.00,2014-10-01 08:47:00,
2014-10-01 04:48:00,48.8,46.9,29.93,NNW,338,0.0,0.0,93,0.00,,---,0.00,VWS V15.00,2014-10-01 08:48:00,
2014-10-01 04:49:00,48.8,46.9,29.93,NNW,338,0.0,0.0,93,0.00,,---,0.00,VWS V15.00,2014-10-01 08:49:00,
2014-10-01 04:50:00,48.8,46.9,29.93,NNW,338,0.0,0.0,93,0.00,,---,0.00,VWS V15.00,2014-10-01 08:50:00,
2014-10-01 04:51:00,48.8,46.9,29.93,NNW,338,0.0,0.0,93,0.00,,---,0.00,VWS V15.00,2014-10-01 08:51:00,
2014-10-01 04:52:00,48.8,46.9,29.93,NNW,338,0.0,0.0,93,0.00,,---,0.00,VWS V15.00,2014-10-01 08:52:00,
2014-10-01 04:53:00,48.7,46.8,29.93,NNW,338,0.0,0.0,93,0.00,,---,0.00,VWS V15.00,2014-10-01 08:53:00,
2014-10-01 04:54:00,48.7,46.8,29.93,NNW,338,0.0,0.0,93,0.00,,---,0.00,VWS V15.00,2014-10-01 08:54:00,
2014-10-01 04:55:00,48.7,46.8,29.93,NNW,338,0.0,0.0,93,0.00,,---,0.00,VWS V15.00,2014-10-01 08:55:00,
2014-10-01 04:56:00,48.7,46.8,29.93,NNW,338,0.0,0.0,93,0.00,,---,0.00,VWS V15.00,2014-10-01 08:56:00,
2014-10-01 04:57:00,48.7,46.8,29.93,NNW,338,0.0,0.0,93,0.00,,---,0.00,VWS V15.00,2014-10-01 08:57:00,
2014-10-01 04:58:00,48.7,46.8,29.93,NNW,338,0.0,0.0,93,0.00,,---,0.00,VWS V15.00,2014-10-01 08:58:00,
2014-10-01 04:59:00,48.7,46.8,29.93,NNW,338,0.0,0.0,93,0.00,,---,0.00,VWS V15.00,2014-10-01 08:59:00,
2014-10-01 05:00:00,48.7,46.8,29.93,NNW,338,0.0,0.0,93,0.00,,---,0.00,VWS V15.00,2014-10-01 09:00:00,
2014-10-01 05:01:00,48.6,46.7,29.93,NNW,338,0.0,0.0,93,0.00,,---,0.00,VWS V15.00,2014-10-01 09:01:00,
2014-10-01 05:02:00,48.6,46.7,29.93,NNW,338,0.0,0.0,93,0.00,,---,0.00,VWS V15.00,2014-10-01 09:02:00,
2014-10-01 05:03:00,48.6,46.7,29.93,NNW,338,0.0,0.0,93,0.00,,---,0.00,VWS V15.00,2014-10-01 09:03:00,
2014-10-01 05:04:00,48.5,46.6,29.93,NNW,338,0.0,0.0,93,0.00,,---,0.00,VWS V15.00,2014-10-01 09:04:00,
2014-10-01 05:05:00,48.5,46.6,29.93,NNW,338,0.0,0.0,93,0.00,,---,0.00,VWS V15.00,2014-10-01 09:05:00,
2014-10-01 05:06:00,48.4,46.5,29.93,NNW,338,0.0,0.0,93,0.00,,---,0.00,VWS V15.00,2014-10-01 09:06:00,
2014-10-01 05:07:00,48.4,46.5,29.93,NNW,338,0.0,0.0,93,0.00,,---,0.00,VWS V15.00,2014-10-01 09:07:00,
2014-10-01 05:08:00,48.4,46.5,29.93,NNW,338,0.0,0.0,93,0.00,,---,0.00,VWS V15.00,2014-10-01 09:08:00,
2014-10-01 05:09:00,48.4,46.5,29.93,NNW,338,0.0,0.0,93,0.00,,---,0.00,VWS V15.00,2014-10-01 09:09:00,
2014-10-01 05:10:00,48.3,46.4,29.93,NNW,338,0.0,0.0,93,0.00,,---,0.00,VWS V15.00,2014-10-01 09:10:00,
2014-10-01 05:11:00,48.3,46.4,29.93,NNW,338,0.0,0.0,93,0.00,,---,0.00,VWS V15.00,2014-10-01 09:11:00,
2014-10-01 05:12:00,48.3,46.4,29.93,NNW,338,0.0,0.0,93,0.00,,---,0.00,VWS V15.00,2014-10-01 09:12:00,
2014-10-01 05:13:00,48.3,46.4,29.93,NNW,338,0.0,0.0,93,0.00,,---,0.00,VWS V15.00,2014-10-01 09:13:00,
2014-10-01 05:14:00,48.3,46.4,29.93,NNW,338,0.0,0.0,93,0.00,,---,0.00,VWS V15.00,2014-10-01 09:14:00,
2014-10-01 05:15:00,48.2,46.3,29.93,NNW,338,0.0,0.0,93,0.00,,---,0.00,VWS V15.00,2014-10-01 09:15:00,
2014-10-01 05:16:00,48.2,46.6,29.93,NNW,338,0.0,0.0,94,0.00,,---,0.00,VWS V15.00,2014-10-01 09:16:00,
2014-10-01 05:17:00,48.3,46.7,29.93,NNW,338,0.0,0.0,94,0.00,,---,0.00,VWS V15.00,2014-10-01 09:17:00,
2014-10-01 05:18:00,48.3,46.7,29.93,NNW,338,0.0,0.0,94,0.00,,---,0.00,VWS V15.00,2014-10-01 09:18:00,
2014-10-01 05:19:00,48.2,46.6,29.93,NNW,338,0.0,0.0,94,0.00,,---,0.00,VWS V15.00,2014-10-01 09:19:00,
2014-10-01 05:20:00,48.2,46.6,29.93,NNW,338,0.0,0.0,94,0.00,,---,0.00,VWS V15.00,2014-10-01 09:20:00,
2014-10-01 05:21:00,48.2,46.6,29.93,NNW,338,0.0,0.0,94,0.00,,---,0.00,VWS V15.00,2014-10-01 09:21:00,
2014-10-01 05:22:00,48.2,46.6,29.93,NNW,338,0.0,0.0,94,0.00,,---,0.00,VWS V15.00,2014-10-01 09:22:00,
2014-10-01 05:23:00,48.2,46.6,29.93,NNW,338,0.0,0.0,94,0.00,,---,0.00,VWS V15.00,2014-10-01 09:23:00,
2014-10-01 05:24:00,48.2,46.6,29.93,NNW,338,0.0,0.0,94,0.00,,---,0.00,VWS V15.00,2014-10-01 09:24:00,
2014-10-01 05:25:00,48.2,46.6,29.93,NNW,338,0.0,0.0,94,0.00,,---,0.00,VWS V15.00,2014-10-01 09:25:00,
2014-10-01 05:26:00,48.2,46.6,29.93,NNW,338,0.0,0.0,94,0.00,,---,0.00,VWS V15.00,2014-10-01 09:26:00,
2014-10-01 05:27:00,48.2,46.6,29.93,NNW,338,0.0,0.0,94,0.00,,---,0.00,VWS V15.00,2014-10-01 09:27:00,
2014-10-01 05:28:00,48.2,46.6,29.93,NNW,338,0.0,0.0,94,0.00,,---,0.00,VWS V15.00,2014-10-01 09:28:00,
2014-10-01 05:29:00,48.1,46.5,29.93,NNW,338,0.0,0.0,94,0.00,,---,0.00,VWS V15.00,2014-10-01 09:29:00,
2014-10-01 05:30:00,48.1,46.5,29.93,NNW,338,0.0,0.0,94,0.00,,---,0.00,VWS V15.00,2014-10-01 09:30:00,
2014-10-01 05:31:00,48.1,46.5,29.93,NNW,338,0.0,0.0,94,0.00,,---,0.00,VWS V15.00,2014-10-01 09:31:00,
2014-10-01 05:32:00,48.1,46.5,29.93,NNW,338,0.0,0.0,94,0.00,,---,0.00,VWS V15.00,2014-10-01 09:32:00,
2014-10-01 05:33:00,48.1,46.5,29.93,NNW,338,0.0,0.0,94,0.00,,---,0.00,VWS V15.00,2014-10-01 09:33:00,
2014-10-01 05:34:00,48.1,46.5,29.93,NNW,338,0.0,0.0,94,0.00,,---,0.00,VWS V15.00,2014-10-01 09:34:00,
2014-10-01 05:35:00,48.0,46.4,29.93,NNW,338,0.0,0.0,94,0.00,,---,0.00,VWS V15.00,2014-10-01 09:35:00,
2014-10-01 05:36:00,48.0,46.4,29.93,NNW,338,0.0,0.0,94,0.00,,---,0.00,VWS V15.00,2014-10-01 09:36:00,
2014-10-01 05:37:00,47.9,46.3,29.93,NNW,338,0.0,0.0,94,0.00,,---,0.00,VWS V15.00,2014-10-01 09:37:00,
2014-10-01 05:38:00,47.9,46.3,29.93,NNW,338,0.0,0.0,94,0.00,,---,0.00,VWS V15.00,2014-10-01 09:38:00,
2014-10-01 05:39:00,47.9,46.3,29.93,NNW,338,0.0,0.0,94,0.00,,---,0.00,VWS V15.00,2014-10-01 09:39:00,
2014-10-01 05:40:00,47.8,46.2,29.93,NNW,338,0.0,0.0,94,0.00,,---,0.00,VWS V15.00,2014-10-01 09:40:00,
2014-10-01 05:41:00,47.8,46.2,29.93,NNW,338,0.0,0.0,94,0.00,,---,0.00,VWS V15.00,2014-10-01 09:41:00,
2014-10-01 05:42:00,47.8,46.2,29.93,NNW,338,0.0,0.0,94,0.00,,---,0.00,VWS V15.00,2014-10-01 09:42:00,
2014-10-01 05:43:00,47.8,46.2,29.93,NNW,338,0.0,0.0,94,0.00,,---,0.00,VWS V15.00,2014-10-01 09:43:00,
2014-10-01 05:44:00,47.8,46.2,29.93,NNW,338,0.0,0.0,94,0.00,,---,0.00,VWS V15.00,2014-10-01 09:44:00,
2014-10-01 05:45:00,47.8,46.2,29.93,NNW,338,0.0,0.0,94,0.00,,---,0.00,VWS V15.00,2014-10-01 09:45:00,
2014-10-01 05:46:00,47.8,46.2,29.93,NNW,338,0.0,0.0,94,0.00,,---,0.00,VWS V15.00,2014-10-01 09:46:00,
2014-10-01 05:47:00,47.8,46.2,29.93,NNW,338,0.0,0.0,94,0.00,,---,0.00,VWS V15.00,2014-10-01 09:47:00,
2014-10-01 05:48:00,47.8,46.2,29.94,NNW,338,0.0,0.0,94,0.00,,---,0.00,VWS V15.00,2014-10-01 09:48:00,
2014-10-01 05:49:00,47.8,46.2,29.94,NNW,338,0.0,0.0,94,0.00,,---,0.00,VWS V15.00,2014-10-01 09:49:00,
2014-10-01 05:50:00,47.8,46.2,29.94,NNW,338,0.0,0.0,94,0.00,,---,0.00,VWS V15.00,2014-10-01 09:50:00,
2014-10-01 05:51:00,47.7,46.1,29.94,NNW,338,0.0,0.0,94,0.00,,---,0.00,VWS V15.00,2014-10-01 09:51:00,
2014-10-01 05:52:00,47.7,46.1,29.94,NNW,338,0.0,0.0,94,0.00,,---,0.00,VWS V15.00,2014-10-01 09:52:00,
2014-10-01 05:53:00,47.7,46.1,29.94,NNW,338,0.0,0.0,94,0.00,,---,0.00,VWS V15.00,2014-10-01 09:53:00,
2014-10-01 05:54:00,47.7,46.1,29.94,NNW,338,0.0,0.0,94,0.00,,---,0.00,VWS V15.00,2014-10-01 09:54:00,
2014-10-01 05:55:00,47.6,46.0,29.94,NNW,338,0.0,0.0,94,0.00,,---,0.00,VWS V15.00,2014-10-01 09:55:00,
2014-10-01 05:56:00,47.6,46.0,29.94,NNW,338,0.0,0.0,94,0.00,,---,0.00,VWS V15.00,2014-10-01 09:56:00,
2014-10-01 05:57:00,47.6,46.0,29.94,NNW,338,0.0,0.0,94,0.00,,---,0.00,VWS V15.00,2014-10-01 09:57:00,
2014-10-01 05:58:00,47.6,46.0,29.94,NNW,338,0.0,0.0,94,0.00,,---,0.00,VWS V15.00,2014-10-01 09:58:00,
2014-10-01 05:59:00,47.5,45.9,29.94,NNW,338,0.0,0.0,94,0.00,,---,0.00,VWS V15.00,2014-10-01 09:59:00,
2014-10-01 06:00:00,47.5,45.9,29.94,NNW,338,0.0,0.0,94,0.00,,---,0.00,VWS V15.00,2014-10-01 10:00:00,
2014-10-01 06:01:00,47.4,45.8,29.94,NNW,338,0.0,0.0,94,0.00,,---,0.00,VWS V15.00,2014-10-01 10:01:00,
2014-10-01 06:02:00,47.4,45.8,29.94,NNW,338,0.0,0.0,94,0.00,,---,0.00,VWS V15.00,2014-10-01 10:02:00,
2014-10-01 06:03:00,47.4,45.8,29.94,NNW,338,0.0,0.0,94,0.00,,---,0.00,VWS V15.00,2014-10-01 10:03:00,
2014-10-01 06:04:00,47.4,45.8,29.94,NNW,338,0.0,0.0,94,0.00,,---,0.00,VWS V15.00,2014-10-01 10:04:00,
2014-10-01 06:05:00,47.4,45.8,29.94,NNW,338,0.0,0.0,94,0.00,,---,0.00,VWS V15.00,2014-10-01 10:05:00,
2014-10-01 06:06:00,47.3,45.7,29.94,NNW,338,0.0,0.0,94,0.00,,---,0.00,VWS V15.00,2014-10-01 10:06:00,
2014-10-01 06:07:00,47.3,45.7,29.94,NNW,338,0.0,0.0,94,0.00,,---,0.00,VWS V15.00,2014-10-01 10:07:00,
2014-10-01 06:08:00,47.3,45.7,29.94,NNW,338,0.0,0.0,94,0.00,,---,0.00,VWS V15.00,2014-10-01 10:08:00,
2014-10-01 06:09:00,47.3,45.7,29.94,NNW,338,0.0,0.0,94,0.00,,---,0.00,VWS V15.00,2014-10-01 10:09:00,
2014-10-01 06:10:00,47.2,45.6,29.94,NNW,338,0.0,0.0,94,0.00,,---,0.00,VWS V15.00,2014-10-01 10:10:00,
2014-10-01 06:11:00,47.2,45.6,29.94,NNW,338,0.0,0.0,94,0.00,,---,0.00,VWS V15.00,2014-10-01 10:11:00,
2014-10-01 06:12:00,47.2,45.6,29.94,NNW,338,0.0,0.0,94,0.00,,---,0.00,VWS V15.00,2014-10-01 10:12:00,
2014-10-01 06:13:00,47.2,45.6,29.94,NNW,338,0.0,0.0,94,0.00,,---,0.00,VWS V15.00,2014-10-01 10:13:00,
2014-10-01 06:14:00,47.2,45.6,29.94,NNW,338,0.0,0.0,94,0.00,,---,0.00,VWS V15.00,2014-10-01 10:14:00,
2014-10-01 06:15:00,47.2,45.6,29.94,NNW,338,0.0,0.0,94,0.00,,---,0.00,VWS V15.00,2014-10-01 10:15:00,
2014-10-01 06:16:00,47.2,45.6,29.94,NNW,338,0.0,0.0,94,0.00,,---,0.00,VWS V15.00,2014-10-01 10:16:00,
2014-10-01 06:17:00,47.2,45.6,29.94,NNW,338,0.0,0.0,94,0.00,,---,0.00,VWS V15.00,2014-10-01 10:17:00,
2014-10-01 06:18:00,47.2,45.6,29.94,NNW,338,0.0,0.0,94,0.00,,---,0.00,VWS V15.00,2014-10-01 10:18:00,
2014-10-01 06:19:00,47.2,45.6,29.94,NNW,338,0.0,0.0,94,0.00,,---,0.00,VWS V15.00,2014-10-01 10:19:00,
2014-10-01 06:20:00,47.2,45.6,29.94,NNW,338,0.0,0.0,94,0.00,,---,0.00,VWS V15.00,2014-10-01 10:20:00,
2014-10-01 06:21:00,47.1,45.5,29.94,NNW,338,0.0,0.0,94,0.00,,---,0.00,VWS V15.00,2014-10-01 10:21:00,
2014-10-01 06:22:00,47.2,45.6,29.94,NNW,338,0.0,0.0,94,0.00,,---,0.00,VWS V15.00,2014-10-01 10:22:00,
2014-10-01 06:23:00,47.1,45.5,29.94,NNW,338,0.0,0.0,94,0.00,,---,0.00,VWS V15.00,2014-10-01 10:23:00,
2014-10-01 06:24:00,47.1,45.5,29.94,NNW,338,0.0,0.0,94,0.00,,---,0.00,VWS V15.00,2014-10-01 10:24:00,
2014-10-01 06:25:00,47.1,45.5,29.94,NNW,338,0.0,0.0,94,0.00,,---,0.00,VWS V15.00,2014-10-01 10:25:00,
2014-10-01 06:26:00,47.1,45.5,29.94,NNW,338,0.0,0.0,94,0.00,,---,0.00,VWS V15.00,2014-10-01 10:26:00,
2014-10-01 06:27:00,47.1,45.5,29.94,NNW,338,0.0,0.0,94,0.00,,---,0.00,VWS V15.00,2014-10-01 10:27:00,
2014-10-01 06:28:00,47.0,45.4,29.94,NNW,338,0.0,0.0,94,0.00,,---,0.00,VWS V15.00,2014-10-01 10:28:00,
2014-10-01 06:29:00,47.1,45.5,29.94,NNW,338,0.0,0.0,94,0.00,,---,0.00,VWS V15.00,2014-10-01 10:29:00,
2014-10-01 06:30:00,47.0,45.4,29.94,NNW,338,0.0,0.0,94,0.00,,---,0.00,VWS V15.00,2014-10-01 10:30:00,
2014-10-01 06:31:00,47.0,45.4,29.94,NNW,338,0.0,0.0,94,0.00,,---,0.00,VWS V15.00,2014-10-01 10:31:00,
2014-10-01 06:32:00,47.0,45.4,29.94,NNW,338,0.0,0.0,94,0.00,,---,0.00,VWS V15.00,2014-10-01 10:32:00,
2014-10-01 06:33:00,47.0,45.4,29.94,NNW,338,0.0,0.0,94,0.00,,---,0.00,VWS V15.00,2014-10-01 10:33:00,
2014-10-01 06:34:00,47.0,45.4,29.94,NNW,338,0.0,0.0,94,0.00,,---,0.00,VWS V15.00,2014-10-01 10:34:00,
2014-10-01 06:35:00,47.0,45.4,29.94,NNW,338,0.0,0.0,94,0.00,,---,0.00,VWS V15.00,2014-10-01 10:35:00,
2014-10-01 06:36:00,47.0,45.4,29.94,NNW,338,0.0,0.0,94,0.00,,---,0.00,VWS V15.00,2014-10-01 10:36:00,
2014-10-01 06:37:00,47.1,45.5,29.94,NNW,338,0.0,1.0,94,0.00,,---,0.00,VWS V15.00,2014-10-01 10:37:00,
2014-10-01 06:38:00,47.1,45.5,29.94,NNW,338,0.0,1.0,94,0.00,,---,0.00,VWS V15.00,2014-10-01 10:38:00,
2014-10-01 06:39:00,47.2,45.8,29.94,NNW,338,0.0,1.0,95,0.00,,---,0.00,VWS V15.00,2014-10-01 10:39:00,
2014-10-01 06:40:00,47.3,45.9,29.94,NNW,338,0.0,1.0,95,0.00,,---,0.00,VWS V15.00,2014-10-01 10:40:00,
2014-10-01 06:41:00,47.4,46.0,29.94,NNW,338,0.0,0.0,95,0.00,,---,0.00,VWS V15.00,2014-10-01 10:41:00,
2014-10-01 06:42:00,47.4,46.0,29.94,NNW,338,0.0,1.0,95,0.00,,---,0.00,VWS V15.00,2014-10-01 10:42:00,
2014-10-01 06:43:00,47.5,46.1,29.94,NNW,338,0.0,0.0,95,0.00,,---,0.00,VWS V15.00,2014-10-01 10:43:00,
2014-10-01 06:44:00,47.6,46.2,29.94,NNW,338,0.0,1.0,95,0.00,,---,0.00,VWS V15.00,2014-10-01 10:44:00,
2014-10-01 06:45:00,47.7,46.3,29.94,NNW,338,0.0,0.0,95,0.00,,---,0.00,VWS V15.00,2014-10-01 10:45:00,
2014-10-01 06:46:00,47.7,46.3,29.94,NNW,338,0.0,1.0,95,0.00,,---,0.00,VWS V15.00,2014-10-01 10:46:00,
2014-10-01 06:47:00,47.8,46.4,29.94,NNW,338,0.0,0.0,95,0.00,,---,0.00,VWS V15.00,2014-10-01 10:47:00,
2014-10-01 06:48:00,47.8,46.4,29.94,NNW,338,0.0,1.0,95,0.00,,---,0.00,VWS V15.00,2014-10-01 10:48:00,
2014-10-01 06:49:00,47.9,46.5,29.94,NNW,338,0.0,0.0,95,0.00,,---,0.00,VWS V15.00,2014-10-01 10:49:00,
2014-10-01 06:50:00,47.9,46.5,29.94,NNW,338,0.0,0.0,95,0.00,,---,0.00,VWS V15.00,2014-10-01 10:50:00,
2014-10-01 06:51:00,47.9,46.5,29.94,NNW,338,0.0,1.0,95,0.00,,---,0.00,VWS V15.00,2014-10-01 10:51:00,
2014-10-01 06:52:00,47.9,46.5,29.94,NNW,338,0.0,0.0,95,0.00,,---,0.00,VWS V15.00,2014-10-01 10:52:00,
2014-10-01 06:53:00,48.0,46.6,29.94,NNW,338,0.0,0.0,95,0.00,,---,0.00,VWS V15.00,2014-10-01 10:53:00,
2014-10-01 06:54:00,48.1,46.7,29.94,NNW,338,0.0,0.0,95,0.00,,---,0.00,VWS V15.00,2014-10-01 10:54:00,
2014-10-01 06:55:00,48.1,46.7,29.94,NNW,338,0.0,0.0,95,0.00,,---,0.00,VWS V15.00,2014-10-01 10:55:00,
2014-10-01 06:56:00,48.1,46.7,29.94,NNW,338,0.0,0.0,95,0.00,,---,0.00,VWS V15.00,2014-10-01 10:56:00,
2014-10-01 06:57:00,48.1,46.7,29.94,NNW,338,0.0,0.0,95,0.00,,---,0.00,VWS V15.00,2014-10-01 10:57:00,
2014-10-01 06:58:00,48.1,46.7,29.94,NNW,338,0.0,0.0,95,0.00,,---,0.00,VWS V15.00,2014-10-01 10:58:00,
2014-10-01 06:59:00,48.1,46.7,29.94,NNW,338,0.0,0.0,95,0.00,,---,0.00,VWS V15.00,2014-10-01 10:59:00,
2014-10-01 07:00:00,48.2,46.8,29.94,NNW,338,0.0,0.0,95,0.00,,---,0.00,VWS V15.00,2014-10-01 11:00:00,
2014-10-01 07:01:00,48.2,46.8,29.94,NNW,338,0.0,0.0,95,0.00,,---,0.00,VWS V15.00,2014-10-01 11:01:00,
2014-10-01 07:02:00,48.2,46.8,29.94,NNW,338,0.0,0.0,95,0.00,,---,0.00,VWS V15.00,2014-10-01 11:02:00,
2014-10-01 07:03:00,48.2,46.8,29.94,NNW,338,0.0,0.0,95,0.00,,---,0.00,VWS V15.00,2014-10-01 11:03:00,
2014-10-01 07:04:00,48.2,46.8,29.95,NNW,338,0.0,0.0,95,0.00,,---,0.00,VWS V15.00,2014-10-01 11:04:00,
2014-10-01 07:05:00,48.2,48.2,29.95,NNW,338,0.0,0.0,100,0.00,,---,0.00,VWS V15.00,2014-10-01 11:05:00,
2014-10-01 07:06:00,48.2,46.8,29.95,NNW,338,0.0,0.0,95,0.00,,---,0.00,VWS V15.00,2014-10-01 11:06:00,
2014-10-01 07:08:00,48.1,46.7,29.95,NNW,338,0.0,0.0,95,0.00,,---,0.00,VWS V15.00,2014-10-01 11:08:00,
2014-10-01 07:09:00,48.1,46.7,29.95,NNW,338,0.0,0.0,95,0.00,,---,0.00,VWS V15.00,2014-10-01 11:09:00,
2014-10-01 07:10:00,48.2,46.8,29.95,NNW,338,0.0,0.0,95,0.00,,---,0.00,VWS V15.00,2014-10-01 11:10:00,
2014-10-01 07:12:00,48.2,46.8,29.95,NNW,338,0.0,0.0,95,0.00,,---,0.00,VWS V15.00,2014-10-01 11:12:00,
2014-10-01 07:13:00,48.1,46.7,29.95,NNW,338,0.0,0.0,95,0.00,,---,0.00,VWS V15.00,2014-10-01 11:13:00,
2014-10-01 07:14:00,48.2,46.8,29.95,NNW,338,0.0,0.0,95,0.00,,---,0.00,VWS V15.00,2014-10-01 11:14:00,
2014-10-01 07:15:00,48.1,46.7,29.95,NNW,338,0.0,0.0,95,0.00,,---,0.00,VWS V15.00,2014-10-01 11:15:00,
2014-10-01 07:16:00,48.2,46.8,29.95,NNW,338,0.0,0.0,95,0.00,,---,0.00,VWS V15.00,2014-10-01 11:16:00,
2014-10-01 07:17:00,48.2,48.2,29.95,NNW,338,0.0,0.0,100,0.00,,---,0.00,VWS V15.00,2014-10-01 11:17:00,
2014-10-01 07:18:00,48.2,46.8,29.95,NNW,338,0.0,0.0,95,0.00,,---,0.00,VWS V15.00,2014-10-01 11:18:00,
2014-10-01 07:19:00,48.2,46.8,29.95,NNW,338,0.0,0.0,95,0.00,,---,0.00,VWS V15.00,2014-10-01 11:19:00,
2014-10-01 07:20:00,48.2,46.8,29.95,NNW,338,0.0,0.0,95,0.00,,---,0.00,VWS V15.00,2014-10-01 11:20:00,
2014-10-01 07:21:00,48.2,46.8,29.95,NNW,338,0.0,0.0,95,0.00,,---,0.00,VWS V15.00,2014-10-01 11:21:00,
2014-10-01 07:22:00,48.3,46.9,29.95,NNW,338,0.0,0.0,95,0.00,,---,0.00,VWS V15.00,2014-10-01 11:22:00,
2014-10-01 07:23:00,48.3,46.9,29.95,NNW,338,0.0,1.0,95,0.00,,---,0.00,VWS V15.00,2014-10-01 11:23:00,
2014-10-01 07:24:00,48.3,46.9,29.95,NNW,338,0.0,0.0,95,0.00,,---,0.00,VWS V15.00,2014-10-01 11:24:00,
2014-10-01 07:25:00,48.4,47.0,29.95,NNW,338,0.0,1.0,95,0.00,,---,0.00,VWS V15.00,2014-10-01 11:25:00,
2014-10-01 07:26:00,48.4,47.3,29.96,NNW,338,0.0,0.0,96,0.00,,---,0.00,VWS V15.00,2014-10-01 11:26:00,
2014-10-01 07:27:00,48.4,47.3,29.96,NNW,338,0.0,0.0,96,0.00,,---,0.00,VWS V15.00,2014-10-01 11:27:00,
2014-10-01 07:28:00,48.4,47.3,29.95,NNW,338,0.0,0.0,96,0.00,,---,0.00,VWS V15.00,2014-10-01 11:28:00,
2014-10-01 07:29:00,48.5,47.4,29.96,NNW,338,0.0,0.0,96,0.00,,---,0.00,VWS V15.00,2014-10-01 11:29:00,
2014-10-01 07:30:00,48.5,47.4,29.96,NNW,338,0.0,1.0,96,0.00,,---,0.00,VWS V15.00,2014-10-01 11:30:00,
2014-10-01 07:31:00,48.5,47.4,29.96,NNE,22,0.0,1.0,96,0.00,,---,0.00,VWS V15.00,2014-10-01 11:31:00,
2014-10-01 07:32:00,48.6,47.5,29.96,NNE,22,0.0,0.0,96,0.00,,---,0.00,VWS V15.00,2014-10-01 11:32:00,
2014-10-01 07:33:00,48.6,47.5,29.96,NNE,22,0.0,0.0,96,0.00,,---,0.00,VWS V15.00,2014-10-01 11:33:00,
2014-10-01 07:34:00,48.6,47.5,29.96,NNE,22,0.0,0.0,96,0.00,,---,0.00,VWS V15.00,2014-10-01 11:34:00,
2014-10-01 07:35:00,48.6,47.5,29.96,NNE,22,0.0,0.0,96,0.00,,---,0.00,VWS V15.00,2014-10-01 11:35:00,
2014-10-01 07:36:00,48.7,47.6,29.96,NNE,22,0.0,0.0,96,0.00,,---,0.00,VWS V15.00,2014-10-01 11:36:00,
2014-10-01 07:50:00,49.1,48.0,29.97,NNE,23,0.0,0.0,96,0.00,,---,0.00,VWS V15.00,2014-10-01 11:50:00,
2014-10-01 07:55:00,49.3,48.2,29.97,NNE,23,0.0,0.0,96,0.00,,---,0.00,VWS V15.00,2014-10-01 11:55:00,
2014-10-01 08:00:00,49.4,48.3,29.97,NNE,23,0.0,0.0,96,0.00,,---,0.00,VWS V15.00,2014-10-01 12:00:00,
2014-10-01 08:05:00,49.6,48.5,29.97,NNE,23,0.0,0.0,96,0.00,,---,0.00,VWS V15.00,2014-10-01 12:05:00,
2014-10-01 08:10:00,49.9,48.8,29.97,NNE,23,0.0,0.0,96,0.00,,---,0.00,VWS V15.00,2014-10-01 12:10:00,
2014-10-01 08:15:00,50.0,48.9,29.98,NNE,23,0.0,0.0,96,0.00,,---,0.00,VWS V15.00,2014-10-01 12:15:00,
2014-10-01 08:20:00,50.2,49.1,29.98,NNE,23,1.0,1.0,96,0.00,,---,0.00,VWS V15.00,2014-10-01 12:20:00,
2014-10-01 08:25:00,50.3,49.2,29.98,NNE,23,0.0,0.0,96,0.00,,---,0.00,VWS V15.00,2014-10-01 12:25:00,
2014-10-01 08:30:00,50.5,49.4,29.98,NNE,23,0.0,0.0,96,0.00,,---,0.00,VWS V15.00,2014-10-01 12:30:00,
2014-10-01 08:35:00,50.6,49.5,29.98,NE,50,0.0,0.0,96,0.00,,---,0.00,VWS V15.00,2014-10-01 12:35:00,
2014-10-01 08:40:00,50.6,49.5,29.98,NE,50,0.0,0.0,96,0.00,,---,0.00,VWS V15.00,2014-10-01 12:40:00,
2014-10-01 08:45:00,50.8,49.7,29.98,NE,50,0.0,0.0,96,0.00,,---,0.00,VWS V15.00,2014-10-01 12:45:00,
2014-10-01 08:50:00,50.9,49.8,29.98,NE,50,0.0,0.0,96,0.00,,---,0.00,VWS V15.00,2014-10-01 12:50:00,
2014-10-01 08:55:00,51.0,49.9,29.99,NE,50,0.0,0.0,96,0.00,,---,0.00,VWS V15.00,2014-10-01 12:55:00,
2014-10-01 09:00:00,51.2,50.1,29.99,NE,50,0.0,0.0,96,0.00,,---,0.00,VWS V15.00,2014-10-01 13:00:00,
2014-10-01 09:05:00,51.4,50.3,29.99,NE,50,0.0,0.0,96,0.00,,---,0.00,VWS V15.00,2014-10-01 13:05:00,
2014-10-01 09:10:00,51.6,50.5,29.99,NE,50,0.0,0.0,96,0.00,,---,0.00,VWS V15.00,2014-10-01 13:10:00,
2014-10-01 09:15:00,51.7,50.6,29.99,NE,50,0.0,0.0,96,0.00,,---,0.00,VWS V15.00,2014-10-01 13:15:00,
2014-10-01 09:20:00,52.0,50.9,29.99,NE,50,0.0,0.0,96,0.00,,---,0.00,VWS V15.00,2014-10-01 13:20:00,
2014-10-01 09:25:00,52.2,51.1,29.99,NE,50,0.0,0.0,96,0.00,,---,0.00,VWS V15.00,2014-10-01 13:25:00,
2014-10-01 09:30:00,52.4,51.3,29.99,NE,50,0.0,0.0,96,0.00,,---,0.00,VWS V15.00,2014-10-01 13:30:00,
2014-10-01 09:35:00,52.6,51.5,29.99,NNW,327,0.0,0.0,96,0.00,,---,0.00,VWS V15.00,2014-10-01 13:35:00,
2014-10-01 09:40:00,52.8,51.7,29.99,NNW,329,0.0,0.0,96,0.00,,---,0.00,VWS V15.00,2014-10-01 13:40:00,
2014-10-01 09:44:00,52.9,51.8,30.00,NNE,12,1.0,2.0,96,0.00,,---,0.00,VWS V15.00,2014-10-01 13:44:00,
2014-10-01 09:49:00,53.0,51.9,30.00,NNE,12,0.0,1.0,96,0.00,,---,0.00,VWS V15.00,2014-10-01 13:49:00,
2014-10-01 09:54:00,53.1,52.0,30.00,ENE,69,0.0,1.0,96,0.00,,---,0.00,VWS V15.00,2014-10-01 13:54:00,
2014-10-01 09:59:00,53.3,52.2,30.00,ENE,69,0.0,0.0,96,0.00,,---,0.00,VWS V15.00,2014-10-01 13:59:00,
2014-10-01 10:04:00,53.4,52.3,30.00,ENE,65,0.0,0.0,96,0.00,,---,0.00,VWS V15.00,2014-10-01 14:04:00,
2014-10-01 10:09:00,53.4,52.3,30.00,ENE,65,0.0,0.0,96,0.00,,---,0.00,VWS V15.00,2014-10-01 14:09:00,
2014-10-01 10:11:00,53.4,52.0,30.00,ENE,65,0.0,0.0,95,0.00,,---,0.00,VWS V15.00,2014-10-01 14:11:00,
2014-10-01 10:16:00,53.5,52.1,30.00,ENE,65,0.0,0.0,95,0.00,,---,0.00,VWS V15.00,2014-10-01 14:16:00,
2014-10-01 10:21:00,53.6,52.2,30.00,ENE,65,0.0,1.0,95,0.00,,---,0.00,VWS V15.00,2014-10-01 14:21:00,
2014-10-01 10:26:00,53.8,52.4,30.00,ENE,65,0.0,0.0,95,0.00,,---,0.00,VWS V15.00,2014-10-01 14:26:00,
2014-10-01 10:31:00,53.9,52.5,30.00,ENE,65,0.0,0.0,95,0.00,,---,0.00,VWS V15.00,2014-10-01 14:31:00,
2014-10-01 10:36:00,53.9,52.5,30.00,ENE,65,0.0,2.0,95,0.00,,---,0.00,VWS V15.00,2014-10-01 14:36:00,
2014-10-01 10:41:00,54.0,52.6,30.00,NNE,13,0.0,1.0,95,0.00,,---,0.00,VWS V15.00,2014-10-01 14:41:00,
2014-10-01 10:46:00,54.2,52.5,30.00,NNE,13,0.0,0.0,94,0.00,,---,0.00,VWS V15.00,2014-10-01 14:46:00,
2014-10-01 10:51:00,54.4,52.7,30.00,NNE,22,0.0,0.0,94,0.00,,---,0.00,VWS V15.00,2014-10-01 14:51:00,
2014-10-01 10:56:00,54.9,53.2,30.00,NE,55,0.0,0.0,94,0.00,,---,0.00,VWS V15.00,2014-10-01 14:56:00,
2014-10-01 11:01:00,55.5,53.8,30.00,ENE,67,0.0,1.0,94,0.00,,---,0.00,VWS V15.00,2014-10-01 15:01:00,
2014-10-01 11:06:00,56.4,54.7,30.00,East,97,0.0,1.0,94,0.00,,---,0.00,VWS V15.00,2014-10-01 15:06:00,
2014-10-01 11:11:00,57.6,55.6,30.00,ENE,70,0.0,2.0,93,0.00,,---,0.00,VWS V15.00,2014-10-01 15:11:00,
2014-10-01 11:16:00,58.3,55.1,30.00,ENE,70,2.0,2.0,89,0.00,,---,0.00,VWS V15.00,2014-10-01 15:16:00,
2014-10-01 11:21:00,58.6,54.4,30.00,ENE,64,1.0,1.0,86,0.00,,---,0.00,VWS V15.00,2014-10-01 15:21:00,
2014-10-01 11:26:00,58.7,54.5,30.00,ENE,62,1.0,3.0,86,0.00,,---,0.00,VWS V15.00,2014-10-01 15:26:00,
2014-10-01 11:31:00,58.9,54.4,30.00,NE,41,0.0,3.0,85,0.00,,---,0.00,VWS V15.00,2014-10-01 15:31:00,
2014-10-01 11:36:00,59.2,54.4,30.00,NE,56,2.0,4.0,84,0.00,,---,0.00,VWS V15.00,2014-10-01 15:36:00,
2014-10-01 11:40:00,59.4,54.2,30.00,NE,55,2.0,2.0,83,0.00,,---,0.00,VWS V15.00,2014-10-01 15:40:00,
2014-10-01 11:45:00,59.8,54.6,30.00,NE,50,0.0,0.0,83,0.00,,---,0.00,VWS V15.00,2014-10-01 15:45:00,
2014-10-01 11:50:00,60.3,54.8,30.00,NNW,346,0.0,1.0,82,0.00,,---,0.00,VWS V15.00,2014-10-01 15:50:00,
2014-10-01 11:55:00,61.0,55.1,30.00,NE,37,0.0,3.0,81,0.00,,---,0.00,VWS V15.00,2014-10-01 15:55:00,
2014-10-01 12:00:00,61.5,55.3,30.00,NE,52,2.0,2.0,80,0.00,,---,0.00,VWS V15.00,2014-10-01 16:00:00,
2014-10-01 12:05:00,62.0,55.8,30.00,NE,48,0.0,1.0,80,0.00,,---,0.00,VWS V15.00,2014-10-01 16:05:00,
2014-10-01 12:10:00,62.4,55.5,30.00,NE,48,2.0,2.0,78,0.00,,---,0.00,VWS V15.00,2014-10-01 16:10:00,
2014-10-01 12:15:00,62.5,55.6,30.00,NNE,20,1.0,1.0,78,0.00,,---,0.00,VWS V15.00,2014-10-01 16:15:00,
2014-10-01 12:20:00,63.0,56.4,30.00,NNE,26,0.0,0.0,79,0.00,,---,0.00,VWS V15.00,2014-10-01 16:20:00,
2014-10-01 12:25:00,63.2,55.9,30.00,ENE,62,2.0,4.0,77,0.00,,---,0.00,VWS V15.00,2014-10-01 16:25:00,
2014-10-01 12:30:00,63.2,55.9,30.00,North,356,0.0,3.0,77,0.00,,---,0.00,VWS V15.00,2014-10-01 16:30:00,
2014-10-01 12:35:00,63.2,55.9,30.00,NNE,16,2.0,2.0,77,0.00,,---,0.00,VWS V15.00,2014-10-01 16:35:00,
2014-10-01 12:39:00,63.3,55.6,30.00,ENE,66,1.0,3.0,76,0.00,,---,0.00,VWS V15.00,2014-10-01 16:39:00,
2014-10-01 12:44:00,63.2,55.5,30.00,NNW,337,4.0,5.0,76,0.00,,---,0.00,VWS V15.00,2014-10-01 16:44:00,
2014-10-01 12:49:00,63.1,55.1,30.00,ENE,65,0.0,3.0,75,0.00,,---,0.00,VWS V15.00,2014-10-01 16:49:00,
2014-10-01 12:54:00,63.3,55.6,30.00,North,2,2.0,2.0,76,0.00,,---,0.00,VWS V15.00,2014-10-01 16:54:00,
2014-10-01 12:59:00,63.7,55.3,30.00,NNE,25,1.0,2.0,74,0.00,,---,0.00,VWS V15.00,2014-10-01 16:59:00,
2014-10-01 13:04:00,63.7,54.9,30.00,NE,55,1.0,1.0,73,0.00,,---,0.00,VWS V15.00,2014-10-01 17:04:00,
2014-10-01 13:09:00,63.9,55.8,30.00,NNE,29,0.0,0.0,75,0.00,,---,0.00,VWS V15.00,2014-10-01 17:09:00,
2014-10-01 13:14:00,64.0,55.2,30.00,East,82,0.0,3.0,73,0.00,,---,0.00,VWS V15.00,2014-10-01 17:14:00,
2014-10-01 13:19:00,64.3,55.5,30.00,NE,56,1.0,3.0,73,0.00,,---,0.00,VWS V15.00,2014-10-01 17:19:00,
2014-10-01 13:24:00,64.7,55.5,30.00,NNE,33,1.0,1.0,72,0.00,,---,0.00,VWS V15.00,2014-10-01 17:24:00,
2014-10-01 13:29:00,64.7,55.1,29.99,ENE,74,2.0,2.0,71,0.00,,---,0.00,VWS V15.00,2014-10-01 17:29:00,
2014-10-01 13:34:00,64.8,55.6,29.99,ENE,76,3.0,3.0,72,0.00,,---,0.00,VWS V15.00,2014-10-01 17:34:00,
2014-10-01 13:39:00,64.9,55.7,29.99,NE,42,2.0,2.0,72,0.00,,---,0.00,VWS V15.00,2014-10-01 17:39:00,
2014-10-01 13:44:00,65.1,55.5,29.99,ENE,60,0.0,0.0,71,0.00,,---,0.00,VWS V15.00,2014-10-01 17:44:00,
2014-10-01 13:49:00,65.5,55.9,29.99,ENE,59,2.0,3.0,71,0.00,,---,0.00,VWS V15.00,2014-10-01 17:49:00,
2014-10-01 13:54:00,65.6,55.2,29.99,NE,37,0.0,3.0,69,0.00,,---,0.00,VWS V15.00,2014-10-01 17:54:00,
2014-10-01 13:59:00,65.8,55.4,29.99,NNE,33,0.0,0.0,69,0.00,,---,0.00,VWS V15.00,2014-10-01 17:59:00,
2014-10-01 14:04:00,66.1,56.0,29.99,NE,54,1.0,1.0,70,0.00,,---,0.00,VWS V15.00,2014-10-01 18:04:00,
2014-10-01 14:09:00,66.4,55.9,29.98,NE,46,2.0,2.0,69,0.00,,---,0.00,VWS V15.00,2014-10-01 18:09:00,
2014-10-01 14:14:00,66.5,55.6,29.98,NE,48,0.0,1.0,68,0.00,,---,0.00,VWS V15.00,2014-10-01 18:14:00,
2014-10-01 14:19:00,66.8,56.3,29.98,ENE,76,3.0,3.0,69,0.00,,---,0.00,VWS V15.00,2014-10-01 18:19:00,
2014-10-01 14:24:00,67.1,56.2,29.98,NE,54,0.0,1.0,68,0.00,,---,0.00,VWS V15.00,2014-10-01 18:24:00,
2014-10-01 14:29:00,67.4,56.1,29.97,North,11,0.0,3.0,67,0.00,,---,0.00,VWS V15.00,2014-10-01 18:29:00,
2014-10-01 14:34:00,67.3,55.2,29.97,NNW,327,2.0,4.0,65,0.00,,---,0.00,VWS V15.00,2014-10-01 18:34:00,
2014-10-01 14:39:00,67.4,55.2,29.97,ENE,71,0.0,1.0,65,0.00,,---,0.00,VWS V15.00,2014-10-01 18:39:00,
2014-10-01 14:44:00,67.7,56.0,29.97,ENE,71,0.0,0.0,66,0.00,,---,0.00,VWS V15.00,2014-10-01 18:44:00,
2014-10-01 14:49:00,68.1,56.3,29.97,NE,54,0.0,0.0,66,0.00,,---,0.00,VWS V15.00,2014-10-01 18:49:00,
2014-10-01 14:54:00,68.4,55.8,29.96,NE,56,0.0,0.0,64,0.00,,---,0.00,VWS V15.00,2014-10-01 18:54:00,
2014-10-01 14:59:00,68.6,56.0,29.96,ESE,120,0.0,0.0,64,0.00,,---,0.00,VWS V15.00,2014-10-01 18:59:00,
2014-10-01 15:04:00,68.8,55.7,29.96,ESE,120,0.0,0.0,63,0.00,,---,0.00,VWS V15.00,2014-10-01 19:04:00,
2014-10-01 15:09:00,68.9,55.4,29.96,ENE,74,0.0,0.0,62,0.00,,---,0.00,VWS V15.00,2014-10-01 19:09:00,
2014-10-01 15:14:00,68.9,55.4,29.96,North,10,0.0,0.0,62,0.00,,---,0.00,VWS V15.00,2014-10-01 19:14:00,
2014-10-01 15:19:00,69.0,55.5,29.96,North,10,2.0,2.0,62,0.00,,---,0.00,VWS V15.00,2014-10-01 19:19:00,
2014-10-01 15:24:00,69.1,55.5,29.96,North,10,0.0,0.0,62,0.00,,---,0.00,VWS V15.00,2014-10-01 19:24:00,
2014-10-01 15:29:00,69.3,55.7,29.96,North,10,0.0,0.0,62,0.00,,---,0.00,VWS V15.00,2014-10-01 19:29:00,
2014-10-01 15:34:00,69.4,55.4,29.96,North,10,0.0,3.0,61,0.00,,---,0.00,VWS V15.00,2014-10-01 19:34:00,